Location: Killam
(52.7910°N, 111.8608°W)
Time: 19:27:12
(UTC+00:00)

Injun/Solrad 3 - Pass Details

Date: 16 February 2026
Orbit: 871 x 985 km, 66.8° (Epoch: 11 March)

Event Time Altitude Azimuth Distance (km) Brightness Sun altitude
Rises 02:19:47 0° 318° (NW) 3,541 11.6 -15.6°
Reaches altitude 10° 02:22:22 10° 324° (NW) 2,614 10.7 -16.0°
Maximum altitude 02:28:16 49° 39° (NE) 1,197 8.2 -16.9°
Enters shadow 02:31:22 27° 99° (E) 1,724 8.7 -17.3°
